Regional Weather Roundup
Issued by NWS

Home | Current Version | Previous Version | Text Only | Print | Product List | Glossary Off
Versions: 1 2 3 4 5 6 7 8 9 10 11 12 13 14 15 16 17 18 19 20 21 22 23 24 25 26 27 28 29 30 31 32 33 34 35 36 37 38 39 40 41 42 43 44 45 46 47 48 49 50

000
ASUS45 KPSR 290810
RWRAZ

ARIZONA HOURLY REGIONAL WEATHER ROUNDUP
NATIONAL WEATHER SERVICE PHOENIX AZ
100 AM MST WED MAR 29 2017

NOTE: FAIR INDICATES FEW OR NO CLOUDS BELOW 12,000 FEET WITH NO
SIGNIFICANT WEATHER AND/OR OBSTRUCTIONS TO VISIBILITY.

AZZ001>003-036-290900-
NORTHWEST ARIZONA

CITY           SKY/WX    TMP DP  RH WIND       PRES   REMARKS
BULLHEAD CITY  CLEAR     68  23  18 N14G20    30.03R
KINGMAN        CLEAR     48  11  22 N7        30.10R
$$

AZZ004>008-015-016-018-290900-
NORTH CENTRAL ARIZONA

CITY           SKY/WX    TMP DP  RH WIND       PRES   REMARKS
GRAND CANYON   CLEAR     25  22  88 CALM      30.11R
WILLIAMS       CLEAR     34  21  60 N8        30.11R WCI  27
PRESCOTT       CLEAR     40  24  53 W8        30.06R WCI  34
FLAGSTAFF      CLEAR     32  22  66 VRB3      30.06S
PAYSON         CLEAR     48  25  40 NE5       30.03S
PAGE           CLEAR     49  26  41 NW10      30.04S
$$

AZZ009>014-017-290900-
NORTHEAST ARIZONA

CITY           SKY/WX    TMP DP  RH WIND       PRES   REMARKS
WINSLOW        CLEAR     43  25  49 W12       30.02R
SAINT JOHNS    PTCLDY    40  33  76 W9        29.95R WCI  34
WINDOW ROCK    MOCLDY    41  29  62 N18G30    29.91R
SHOW LOW       PTCLDY    36  25  64 NW7       30.01F WCI  30
$$

AZZ023-290900-
GREATER PHOENIX AREA

CITY           SKY/WX    TMP DP  RH WIND       PRES   REMARKS
PHOENIX        PTCLDY    64  29  26 SW8       29.88R
BUCKEYE        CLEAR     63  25  23 NW13      29.92R
LUKE AFB       CLEAR     65  29  26 NW13      29.89R
DEER VALLEY    CLEAR     65  24  21 N13       29.89R
SCOTTSDALE     CLEAR     62  32  32 NW5       29.90R
MESA-GATEWAY   CLEAR     54  30  40 E5        29.90R
$$

AZZ027-028-290900-
SOUTHWEST MARICOPA COUNTY AND PINAL COUNTY

CITY           SKY/WX    TMP DP  RH WIND       PRES   REMARKS
CASA GRANDE    NOT AVBL
GILA BEND      FAIR     N/A N/A N/A SW9         N/A
$$

AZZ503-504-507>509-290900-
SOUTHEAST ARIZONA

CITY           SKY/WX    TMP DP  RH WIND       PRES   REMARKS
TUCSON         CLEAR     55  31  39 SE5       29.98R
DAVIS-MONTHAN  CLEAR     53  31  42 SW6       29.96S
NOGALES        CLEAR     46  26  45 S3        30.01R
SIERRA VISTA   CLEAR     49  27  41 W16       30.01S
DOUGLAS        CLEAR     43  28  55 N5        29.98S
SAFFORD        CLEAR     51  35  54 NW9       29.90S
$$

AZZ020-021-025-026-031-290900-
SOUTHWEST ARIZONA

CITY           SKY/WX    TMP DP  RH WIND       PRES   REMARKS
YUMA           CLEAR     62  25  24 SW3       29.96R
$$

CAZ031-033-041-043-047-048-061-290900-
SOUTHERN CALIFORNIA

CITY           SKY/WX    TMP DP  RH WIND       PRES   REMARKS
DOWNTOWN L.A.  CLEAR     63  49  60 CALM      30.00S
L.A. AIRPORT   CLEAR     58  51  78 E6        30.00S
SAN DIEGO      CLEAR     61  43  51 CALM      30.02F
BURBANK        CLEAR     62  35  36 CALM      30.01R
ONTARIO        CLEAR     57  38  48 N5        30.01F
RIVERSIDE      CLEAR     60  36  40 SE6       30.02S
PALM SPRINGS   CLEAR     71  18  13 SW7       30.01F
EL CENTRO NAS  CLEAR     59  19  21 SW9       29.99R
IMPERIAL       CLEAR     58  32  37 CALM      29.96S
BLYTHE         CLEAR     64  21  19 N9        29.98
NEEDLES        CLEAR     68  25  19 N13       30.03R
$$

NVZ020-UTZ003-290900-
SOUTHERN NEVADA-UTAH

CITY           SKY/WX    TMP DP  RH WIND       PRES   REMARKS
LAS VEGAS      CLEAR     59  25  27 CALM      30.12R
SALT LAKE CITY CLEAR     39  32  76 N6        30.23R WCI  35
$$

NMZ009-TXZ055-290900-
NEW MEXICO-WEST TEXAS

CITY           SKY/WX    TMP DP  RH WIND       PRES   REMARKS
ALBUQUERQUE    LGT RAIN  43  38  82 N5        29.85R
EL PASO        MOCLDY    55  31  39 W17       29.86S
$$


........................KEY........................
SKY/WX - SKY CONDITION/WEATHER
TMP    - TEMPERATURE IN FAHRENHEIT
DP     - DEW POINT IN FAHRENHEIT
RH     - RELATIVE HUMIDITY IN PERCENT
WIND   - DIRECTION AND SPEED IN MILES PER HOUR (MPH)
VRB    - VARIABLE WIND DIRECTION
PRES   - MEAN SEA LEVEL PRESSURE IN INCHES OF MERCURY
         F - FALLING PRESSURE   R - RISING PRESSURE
         S - STEADY PRESSURE
VSB    - VISIBILITY IN MILES
HX     - HEAT INDEX IN FAHRENHEIT
WCI    - WIND CHILL INDEX IN FAHRENHEIT
TC     - TEMPERATURE IN CELSIUS WHICH IS ALSO KNOWN AS
         TEMPERATURE IN CENTIGRADE
AFB    - AIR FORCE BASE
         LUKE AFB IS LUKE AIR FORCE BASE
         DAVIS-MONTHAN IS DAVIS-MONTHAN AIR FORCE BASE
NAS    - NAVAL AIR STATION
         EL CENTRO NAS IS EL CENTRO NAVAL AIR STATION
N/A    - NOT AVAILABLE




USA.gov is the U.S. government's official web portal to all federal, state and local government web resources and services.